FENGYUN 2A

Satellite information

Favourite Embed

Satellite Type and Status

PAYLOADIN ORBIT

Key statistics

Satellite FENGYUN 2A at a glance.

Uptime

10374

Days in orbit

Revolutions

≈ 1.0

Per day

Orbit

OTHER

Other

Inclination

15.5

Latest

Satellite identification and parameters

Extended collection of information and parameters for FENGYUN 2A.

Object identification

Identified? True

Debris? False

Object name: FENGYUN 2A

International designator: 1997-029A

Object number (NORAD): 24834

Object ID (CCSDS): 24834

Country: PEOPLES REPUBLIC OF CHINA (PRC)

Current information (Y/N): Y

RCS size: LARGE

Orbital parameters

Period: 1499.208 minutes

Inclination: 15.5397 deg

SMA: 43391.184 km

Apoapsis: 37472.452 km

Periapsis: 36553.645 km

RAAN: 7.6907 deg

Eccentricy: 0.01058749

Argument of periapsis: 232.3959 deg

Mean anomaly: 143.481 deg

Mean motion: 0.96050696 rev/day

Mean motion (dot): -0.00000115 rev/day2

B* drag term: 0.0 1/REarth

Two-line elements (TLE)

Creation date: Nov. 2, 2025, 5:34 p.m.

Reference frame: TEME

Reference center: EARTH

Epoch: Nov. 2, 2025, 4:10 a.m. UTC

TLE line 0: 0 FENGYUN 2A

TLE line 1: 1 24834U 97029A 25306.17407241 -.00000115 00000-0 00000-0 0 9998

TLE line 2: 2 24834 15.5397 7.6907 0105875 232.3959 143.4810 0.96050696101229

Live tracking on map

Real-time ground track for satellite FENGYUN 2A.

In-orbit conjunctions

There are no conjunctions computed for FENGYUN 2A, at the moment. Check back to stay up to date, as we update our databases every day.

Go to all conjunctions

Associated space launch

China's geostationary meteorological satellite program FY-2 (Feng Yun 2) began its development in 1980. It is built by the Shanghai Institute of Satellite Engineering.

FENGYUN 2A was lifted into orbit during the mission ‘Long March 3 | Feng Yun 2A’, on board a Long March 3 space rocket.

The launch took place on June 10, 1997, 12:01 p.m. from Launch Complex 3 (LC-3/LA-1).

For more information about the launch, click the button.

Launch to space Long March 3 | Feng Yun 2A
Long March 3 | Feng Yun 2A

Agency: N/A

Status: Launch Successful

Launch date: June 10, 1997, 12:01 p.m. UTC

Rocket: Long March 3

Launch pad: Launch Complex 3 (LC-3/LA-1)

Location: Xichang Satellite Launch Center, People's Republic of China

...

Latest news about this satellite

There are no fresh news available about this satellite. Check back as we update our databases every day.


Newsletter sign-up

Weekly statistics, charts and insights to help you stay on top of the space industry.